TimeWET,TemperatureF,Dew PointF,Humidity,Sea Level PressureIn,VisibilityMPH,Wind Direction,Wind SpeedMPH,Gust SpeedMPH,PrecipitationIn,Events,Conditions,WindDirDegrees,DateUTC
12:00 AM,59,55,82,30.16,,Calm,Calm,,,,,,2012-11-24 00:00:00
3:00 AM,57,55,91,30.14,,SW,1.2,,,,,230,2012-11-24 03:00:00
6:00 AM,53,51,92,30.11,6,South,2.3,,,,,180,2012-11-24 06:00:00
6:00 AM,53.6,51.8,94,30.09,-9999.0,South,2.3,-,N/A,,Clear,180,2012-11-24 06:00:00
7:00 AM,51.8,50.0,94,30.12,6.2,SSW,2.3,-,N/A,,Partly Cloudy,200,2012-11-24 07:00:00
8:00 AM,55.4,53.6,94,30.12,6.2,South,4.6,-,N/A,,Scattered Clouds,180,2012-11-24 08:00:00
9:00 AM,61,58,85,30.15,6,South,2.3,,,,Scattered Clouds,180,2012-11-24 09:00:00
9:00 AM,60.8,57.2,88,30.12,6.2,South,2.3,-,N/A,,Partly Cloudy,180,2012-11-24 09:00:00
10:00 AM,66.2,59.0,78,30.12,6.2,SSW,2.3,-,N/A,,Partly Cloudy,200,2012-11-24 10:00:00
11:00 AM,66.2,59.0,78,30.12,6.2,NNE,2.3,-,N/A,,Partly Cloudy,20,2012-11-24 11:00:00
12:00 PM,66,59,72,30.13,9,NNW,6.9,,,,Clear,340,2012-11-24 12:00:00
12:00 PM,66.2,59.0,78,30.12,-9999.0,NNW,6.9,-,N/A,,Clear,340,2012-11-24 12:00:00
1:00 PM,66.2,59.0,78,30.09,-9999.0,North,6.9,-,N/A,,Clear,360,2012-11-24 13:00:00
2:00 PM,66.2,59.0,78,30.09,-9999.0,North,6.9,-,N/A,,Clear,360,2012-11-24 14:00:00
3:00 PM,66,59,72,30.10,6,NNW,6.9,,,,Clear,340,2012-11-24 15:00:00
3:00 PM,66.2,59.0,78,30.09,-9999.0,NNW,6.9,-,N/A,,Clear,340,2012-11-24 15:00:00
4:00 PM,64.4,59.0,83,30.09,-9999.0,North,2.3,-,N/A,,Clear,360,2012-11-24 16:00:00
5:00 PM,62.6,57.2,82,30.09,-9999.0,NNW,2.3,-,N/A,,Clear,340,2012-11-24 17:00:00
6:00 PM,61,56,80,30.10,6,West,2.3,,,,Scattered Clouds,280,2012-11-24 18:00:00
6:00 PM,60.8,57.2,88,30.09,-9999.0,West,2.3,-,N/A,,Clear,280,2012-11-24 18:00:00
7:00 PM,60.8,57.2,88,30.09,-9999.0,SSW,2.3,-,N/A,,Clear,200,2012-11-24 19:00:00
8:00 PM,59.0,57.2,94,30.09,-9999.0,South,4.6,-,N/A,,Clear,180,2012-11-24 20:00:00
9:00 PM,58,55,87,30.13,6,South,2.3,,,,Scattered Clouds,180,2012-11-24 21:00:00
9:00 PM,59.0,55.4,88,30.12,-9999.0,South,2.3,-,N/A,,Clear,180,2012-11-24 21:00:00